CW0493 Weather Reports


time (UTC)temp
C
wind
direction
speed
KPH
gust
KPH
rain 1hr
cm
rain 24hr
cm
rain mn
cm
humidity
%
barometer
mb
20260505130107 8 279 0.0 0.0 0.00 0.00 0.00 96 1013.5
20260505125014 8 279 0.0 0.0 0.00 0.00 0.00 96 1013.5
20260505124508 8 279 0.0 0.0 0.00 0.00 0.00 96 1013.5
20260505124011 8 279 0.0 0.0 0.00 0.00 0.00 96 1013.4
20260505123519 8 279 0.0 0.0 0.00 0.00 0.00 96 1013.4
20260505123054 8 279 0.0 0.0 0.00 0.00 0.00 96 1013.4
20260505122559 8 281 0.0 1.6 0.00 0.00 0.00 96 1013.4
20260505122501 8 281 0.0 1.6 0.00 0.00 0.00 96 1013.3
20260505122011 8 281 0.0 1.6 0.00 0.00 0.00 96 1013.3
20260505121558 8 292 0.0 1.6 0.00 0.00 0.00 96 1013.3
20260505121045 8 292 0.0 1.6 0.00 0.00 0.00 96 1013.3
20260505120559 8 292 0.0 0.0 0.00 0.00 0.00 96 1013.3
20260505120048 8 292 0.0 1.6 0.00 0.00 0.00 96 1013.3
20260505115600 8 292 0.0 1.6 0.00 0.00 0.00 96 1013.3
20260505115011 8 292 0.0 0.0 0.00 0.00 0.00 96 1013.3
20260505114539 8 292 0.0 0.0 0.00 0.00 0.00 96 1013.3
20260505114046 8 292 0.0 0.0 0.00 0.00 0.00 96 1013.3
20260505113552 8 292 0.0 1.6 0.00 0.00 0.00 96 1013.2
20260505113022 8 292 0.0 0.0 0.00 0.00 0.00 96 1013.3
20260505112529 8 292 0.0 0.0 0.00 0.00 0.00 96 1013.3
20260505112035 7 292 0.0 1.6 0.00 0.00 0.00 96 1013.3
20260505111530 7 292 0.0 1.6 0.00 0.00 0.00 96 1013.2
20260505111037 7 292 0.0 0.0 0.00 0.00 0.00 96 1013.2
20260505110541 7 292 0.0 0.0 0.00 0.00 0.00 96 1013.1
20260505102047 7 292 0.0 0.0 0.00 0.00 0.00 95 1012.8
20260505101522 7 292 0.0 1.6 0.00 0.00 0.00 95 1012.8
20260505101031 8 292 0.0 1.6 0.00 0.00 0.00 94 1012.7
20260505100536 8 292 0.0 1.6 0.00 0.00 0.00 94 1012.7
20260505100004 8 292 0.0 0.0 0.00 0.00 0.00 95 1012.7
20260505095514 8 292 0.0 0.0 0.00 0.00 0.00 95 1012.8
20260505095016 8 292 0.0 0.0 0.00 0.00 0.00 95 1012.7
20260505094509 8 292 0.0 3.2 0.00 0.00 0.00 95 1012.7
20260505094013 8 292 0.0 3.2 0.00 0.00 0.00 95 1012.7
20260505093521 8 299 0.0 0.0 0.00 0.00 0.00 95 1012.7
20260505093055 8 299 0.0 0.0 0.00 0.00 0.00 95 1012.7
20260505092601 8 299 0.0 0.0 0.00 0.00 0.00 95 1012.7
20260505092010 8 299 0.0 3.2 0.00 0.00 0.00 94 1012.6
20260505091540 8 299 0.0 3.2 0.00 0.00 0.00 94 1012.6
20260505091046 8 299 0.0 0.0 0.00 0.00 0.00 94 1012.6
20260505090549 8 299 0.0 1.6 0.00 0.00 0.00 94 1012.6
20260505090021 8 299 0.0 0.0 0.00 0.00 0.00 94 1012.6
20260505085534 8 5 0.0 0.0 0.00 0.00 0.00 94 1012.5
20260505085038 8 29 0.0 0.0 0.00 0.00 0.00 94 1012.5
20260505084510 8 42 0.0 0.0 0.00 0.00 0.00 94 1012.5
20260505084015 8 42 0.0 0.0 0.00 0.00 0.00 93 1012.5
20260505083525 8 42 0.0 0.0 0.00 0.00 0.00 93 1012.5
20260505083057 8 42 0.0 0.0 0.00 0.00 0.00 93 1012.4
20260505082557 8 42 0.0 0.0 0.00 0.00 0.00 93 1012.4
20260505082011 8 42 0.0 0.0 0.00 0.00 0.00 93 1012.3
20260505081536 8 42 0.0 0.0 0.00 0.00 0.00 93 1012.3
20260505081040 9 42 0.0 0.0 0.00 0.00 0.00 93 1012.2
20260505080543 9 42 0.0 0.0 0.00 0.00 0.00 93 1012.1
20260505080013 9 42 0.0 0.0 0.00 0.00 0.00 93 1012.1
20260505075524 9 42 0.0 0.0 0.00 0.00 0.00 93 1012.1
20260505075031 10 42 0.0 0.0 0.00 0.00 0.00 93 1012.1
20260505074502 10 42 0.0 1.6 0.00 0.00 0.00 93 1012.1
20260505074008 10 43 0.0 1.6 0.00 0.00 0.00 93 1012.1
20260505073520 10 32 0.0 3.2 0.00 0.00 0.00 93 1012.0
20260505073042 10 350 0.0 1.6 0.00 0.00 0.00 93 1012.0
20260505072556 10 350 0.0 1.6 0.00 0.00 0.00 93 1011.9
20260505072055 10 317 0.0 1.6 0.00 0.00 0.00 92 1011.9
20260505071526 10 317 0.0 0.0 0.00 0.00 0.00 91 1011.9
20260505071030 10 309 0.0 0.0 0.00 0.00 0.00 91 1011.8
20260505070540 10 309 0.0 0.0 0.00 0.00 0.00 91 1011.9
20260505070012 10 309 0.0 0.0 0.00 0.00 0.00 90 1011.8
20260505065511 10 309 0.0 0.0 0.00 0.00 0.00 90 1011.8
20260505065021 10 309 0.0 0.0 0.00 0.00 0.00 90 1011.7
20260505064547 10 309 0.0 0.0 0.00 0.00 0.00 90 1011.7
20260505064059 10 309 0.0 0.0 0.00 0.00 0.00 90 1011.8
20260505063511 10 309 0.0 0.0 0.00 0.00 0.00 89 1011.7
20260505063039 11 309 0.0 3.2 0.00 0.00 0.00 89 1011.7
20260505062546 11 309 0.0 3.2 0.00 0.00 0.00 88 1011.7
20260505062047 11 84 0.0 0.0 0.00 0.00 0.00 88 1011.6
20260505061523 11 84 0.0 0.0 0.00 0.00 0.00 88 1011.7
20260505061033 11 84 0.0 0.0 0.00 0.00 0.00 87 1011.7
20260505060541 11 84 0.0 0.0 0.00 0.00 0.00 88 1011.7
20260505060024 11 84 0.0 0.0 0.00 0.00 0.00 87 1011.7
20260505055520 11 67 0.0 0.0 0.00 0.00 0.00 87 1011.7
20260505055030 11 67 0.0 0.0 0.00 0.00 0.00 87 1011.7
20260505054502 11 67 0.0 0.0 0.00 0.00 0.00 87 1011.7
20260505054004 11 67 0.0 1.6 0.00 0.00 0.00 87 1011.6
20260505053515 11 84 0.0 1.6 0.00 0.00 0.00 87 1011.6
20260505053012 12 84 0.0 4.8 0.00 0.00 0.00 87 1011.6
20260505052517 12 98 1.6 6.4 0.00 0.00 0.00 86 1011.5
20260505052027 12 90 1.6 6.4 0.00 0.00 0.00 86 1011.5
20260505051556 12 98 0.0 0.0 0.00 0.00 0.00 86 1011.5
20260505051004 12 98 0.0 1.6 0.00 0.00 0.00 85 1011.5
20260505050517 12 98 0.0 0.0 0.00 0.00 0.00 85 1011.4
20260504151021 11 57 1.6 4.8 0.00 0.00 0.00 93 1011.4
20260504150528 11 92 1.6 4.8 0.00 0.00 0.00 94 1011.4
20260504141038 10 19 0.0 4.8 0.00 0.00 0.00 94 1010.8
20260504140544 10 24 1.6 4.8 0.00 0.00 0.00 94 1010.7